Time,TemperatureF,DewpointF,PressureIn,WindDirection,WindDirectionDegrees,WindSpeedMPH,WindSpeedGustMPH,Humidity,HourlyPrecipIn,Conditions,Clouds,dailyrainin,SoftwareType,DateUTC
2013-06-25 00:00:00,69.5,63.8,29.87,North,-999,0.0,0.0,82,0.00,,,-99.99,WeatherLink 5.5,2013-06-25 04:00:00,
2013-06-25 00:05:00,69.6,63.9,29.87,North,-999,0.0,0.0,82,0.00,,,-99.99,WeatherLink 5.5,2013-06-25 04:05:00,
2013-06-25 00:10:00,69.6,63.9,29.87,North,-999,0.0,0.0,82,0.00,,,-99.99,WeatherLink 5.5,2013-06-25 04:10:00,
2013-06-25 00:15:00,69.6,63.9,29.87,North,-999,0.0,0.0,82,0.00,,,-99.99,WeatherLink 5.5,2013-06-25 04:15:00,
2013-06-25 00:20:00,69.6,63.9,29.87,WSW,247,0.0,1.0,82,0.00,,,-99.99,WeatherLink 5.5,2013-06-25 04:20:00,
2013-06-25 00:25:00,69.5,63.8,29.87,WSW,247,0.0,2.0,82,0.00,,,-99.99,WeatherLink 5.5,2013-06-25 04:25:00,
2013-06-25 00:30:00,69.5,63.8,29.87,WSW,247,0.0,2.0,82,0.00,,,-99.99,WeatherLink 5.5,2013-06-25 04:30:00,
2013-06-25 00:35:00,69.5,63.8,29.87,North,-999,0.0,0.0,82,0.00,,,-99.99,WeatherLink 5.5,2013-06-25 04:35:00,
2013-06-25 00:40:00,69.5,63.8,29.87,North,-999,0.0,0.0,82,0.00,,,-99.99,WeatherLink 5.5,2013-06-25 04:40:00,
2013-06-25 00:45:00,69.5,63.8,29.87,North,-999,0.0,0.0,82,0.00,,,-99.99,WeatherLink 5.5,2013-06-25 04:45:00,
2013-06-25 00:50:00,69.5,63.8,29.87,North,-999,0.0,0.0,82,0.00,,,-99.99,WeatherLink 5.5,2013-06-25 04:50:00,
2013-06-25 00:55:00,69.5,63.8,29.87,North,-999,0.0,0.0,82,0.00,,,-99.99,WeatherLink 5.5,2013-06-25 04:55:00,
2013-06-25 01:00:00,69.5,63.8,29.87,North,-999,0.0,0.0,82,0.00,,,-99.99,WeatherLink 5.5,2013-06-25 05:00:00,
2013-06-25 01:05:00,69.3,63.6,29.88,North,-999,0.0,0.0,82,0.00,,,-99.99,WeatherLink 5.5,2013-06-25 05:05:00,
2013-06-25 01:10:00,69.3,63.6,29.88,North,-999,0.0,0.0,82,0.00,,,-99.99,WeatherLink 5.5,2013-06-25 05:10:00,
2013-06-25 01:15:00,69.3,63.6,29.88,North,-999,0.0,0.0,82,0.00,,,-99.99,WeatherLink 5.5,2013-06-25 05:15:00,
2013-06-25 01:20:00,69.1,63.7,29.87,North,-999,0.0,0.0,83,0.00,,,-99.99,WeatherLink 5.5,2013-06-25 05:20:00,
2013-06-25 01:25:00,69.1,63.7,29.87,North,-999,0.0,0.0,83,0.00,,,-99.99,WeatherLink 5.5,2013-06-25 05:25:00,
2013-06-25 01:30:00,69.1,63.7,29.87,North,-999,0.0,0.0,83,0.00,,,-99.99,WeatherLink 5.5,2013-06-25 05:30:00,
2013-06-25 01:35:00,69.0,63.6,29.87,North,-999,0.0,0.0,83,0.00,,,-99.99,WeatherLink 5.5,2013-06-25 05:35:00,
2013-06-25 01:40:00,69.0,63.6,29.87,North,-999,0.0,0.0,83,0.00,,,-99.99,WeatherLink 5.5,2013-06-25 05:40:00,
2013-06-25 01:45:00,69.0,63.6,29.87,North,-999,0.0,0.0,83,0.00,,,-99.99,WeatherLink 5.5,2013-06-25 05:45:00,
2013-06-25 01:50:00,69.0,63.6,29.87,North,-999,0.0,0.0,83,0.00,,,-99.99,WeatherLink 5.5,2013-06-25 05:50:00,
2013-06-25 01:55:00,69.0,63.6,29.87,North,-999,0.0,0.0,83,0.00,,,-99.99,WeatherLink 5.5,2013-06-25 05:55:00,
2013-06-25 02:00:00,69.0,63.6,29.87,North,-999,0.0,0.0,83,0.00,,,-99.99,WeatherLink 5.5,2013-06-25 06:00:00,
2013-06-25 02:05:00,69.0,63.6,29.86,North,-999,0.0,0.0,83,0.00,,,-99.99,WeatherLink 5.5,2013-06-25 06:05:00,
2013-06-25 02:10:00,68.8,63.4,29.86,North,-999,0.0,0.0,83,0.00,,,-99.99,WeatherLink 5.5,2013-06-25 06:10:00,
2013-06-25 02:15:00,68.8,63.4,29.86,North,-999,0.0,0.0,83,0.00,,,-99.99,WeatherLink 5.5,2013-06-25 06:15:00,
2013-06-25 02:20:00,68.8,63.4,29.86,North,-999,0.0,0.0,83,0.00,,,-99.99,WeatherLink 5.5,2013-06-25 06:20:00,
2013-06-25 02:25:00,68.6,63.2,29.86,North,-999,0.0,0.0,83,0.00,,,-99.99,WeatherLink 5.5,2013-06-25 06:25:00,
2013-06-25 02:30:00,68.6,63.2,29.86,North,-999,0.0,0.0,83,0.00,,,-99.99,WeatherLink 5.5,2013-06-25 06:30:00,
2013-06-25 02:35:00,68.5,62.8,29.85,North,-999,0.0,0.0,82,0.00,,,-99.99,WeatherLink 5.5,2013-06-25 06:35:00,
2013-06-25 02:40:00,68.6,62.9,29.85,North,-999,0.0,0.0,82,0.00,,,-99.99,WeatherLink 5.5,2013-06-25 06:40:00,
2013-06-25 02:45:00,68.6,62.9,29.85,North,-999,0.0,0.0,82,0.00,,,-99.99,WeatherLink 5.5,2013-06-25 06:45:00,
2013-06-25 02:50:00,68.5,62.8,29.85,SE,135,0.0,1.0,82,0.00,,,-99.99,WeatherLink 5.5,2013-06-25 06:50:00,
2013-06-25 02:55:00,68.5,62.8,29.85,SE,135,0.0,1.0,82,0.00,,,-99.99,WeatherLink 5.5,2013-06-25 06:55:00,
2013-06-25 03:00:00,68.5,62.8,29.85,SE,135,0.0,1.0,82,0.00,,,-99.99,WeatherLink 5.5,2013-06-25 07:00:00,
2013-06-25 03:05:00,68.5,62.8,29.84,North,-999,0.0,0.0,82,0.00,,,-99.99,WeatherLink 5.5,2013-06-25 07:05:00,
2013-06-25 03:10:00,68.5,62.8,29.84,SSE,157,0.0,6.0,82,0.00,,,-99.99,WeatherLink 5.5,2013-06-25 07:10:00,
2013-06-25 03:15:00,68.5,62.8,29.84,SSE,157,0.0,6.0,82,0.00,,,-99.99,WeatherLink 5.5,2013-06-25 07:15:00,
2013-06-25 03:20:00,68.3,62.2,29.85,North,-999,0.0,0.0,81,0.00,,,-99.99,WeatherLink 5.5,2013-06-25 07:20:00,
2013-06-25 03:25:00,68.3,62.2,29.85,SE,135,0.0,6.0,81,0.00,,,-99.99,WeatherLink 5.5,2013-06-25 07:25:00,
2013-06-25 03:30:00,68.3,62.2,29.85,SE,135,0.0,6.0,81,0.00,,,-99.99,WeatherLink 5.5,2013-06-25 07:30:00,
2013-06-25 03:35:00,68.3,62.2,29.84,North,-999,0.0,0.0,81,0.00,,,-99.99,WeatherLink 5.5,2013-06-25 07:35:00,
2013-06-25 03:40:00,68.3,62.2,29.84,SE,135,0.0,1.0,81,0.00,,,-99.99,WeatherLink 5.5,2013-06-25 07:40:00,
2013-06-25 03:45:00,68.3,62.2,29.84,SE,135,0.0,1.0,81,0.00,,,-99.99,WeatherLink 5.5,2013-06-25 07:45:00,
2013-06-25 03:50:00,68.1,62.0,29.85,North,-999,0.0,0.0,81,0.00,,,-99.99,WeatherLink 5.5,2013-06-25 07:50:00,
2013-06-25 03:55:00,68.1,62.0,29.85,North,-999,0.0,0.0,81,0.00,,,-99.99,WeatherLink 5.5,2013-06-25 07:55:00,
2013-06-25 04:00:00,68.1,62.0,29.85,North,-999,0.0,0.0,81,0.00,,,-99.99,WeatherLink 5.5,2013-06-25 08:00:00,
2013-06-25 04:05:00,68.0,61.9,29.85,North,-999,0.0,0.0,81,0.00,,,-99.99,WeatherLink 5.5,2013-06-25 08:05:00,
2013-06-25 04:10:00,68.0,61.9,29.85,North,-999,0.0,0.0,81,0.00,,,-99.99,WeatherLink 5.5,2013-06-25 08:10:00,
2013-06-25 04:15:00,68.0,61.9,29.85,North,-999,0.0,0.0,81,0.00,,,-99.99,WeatherLink 5.5,2013-06-25 08:15:00,
2013-06-25 04:20:00,67.8,61.8,29.85,North,-999,0.0,0.0,81,0.00,,,-99.99,WeatherLink 5.5,2013-06-25 08:20:00,
2013-06-25 04:25:00,67.6,61.9,29.85,North,-999,0.0,0.0,82,0.00,,,-99.99,WeatherLink 5.5,2013-06-25 08:25:00,
2013-06-25 04:30:00,67.6,61.9,29.85,North,-999,0.0,0.0,82,0.00,,,-99.99,WeatherLink 5.5,2013-06-25 08:30:00,
2013-06-25 04:35:00,67.5,61.8,29.85,North,-999,0.0,0.0,82,0.00,,,-99.99,WeatherLink 5.5,2013-06-25 08:35:00,
2013-06-25 04:40:00,67.3,61.6,29.85,North,-999,0.0,0.0,82,0.00,,,-99.99,WeatherLink 5.5,2013-06-25 08:40:00,
2013-06-25 04:45:00,67.3,61.6,29.85,North,-999,0.0,0.0,82,0.00,,,-99.99,WeatherLink 5.5,2013-06-25 08:45:00,
2013-06-25 04:50:00,67.3,61.6,29.85,North,-999,0.0,0.0,82,0.00,,,-99.99,WeatherLink 5.5,2013-06-25 08:50:00,
2013-06-25 04:55:00,67.3,61.6,29.85,North,-999,0.0,0.0,82,0.00,,,-99.99,WeatherLink 5.5,2013-06-25 08:55:00,
2013-06-25 05:00:00,67.3,61.6,29.85,North,-999,0.0,0.0,82,0.00,,,-99.99,WeatherLink 5.5,2013-06-25 09:00:00,
2013-06-25 05:05:00,67.1,61.4,29.85,North,-999,0.0,0.0,82,0.00,,,-99.99,WeatherLink 5.5,2013-06-25 09:05:00,
2013-06-25 05:10:00,67.1,61.4,29.85,North,-999,0.0,0.0,82,0.00,,,-99.99,WeatherLink 5.5,2013-06-25 09:10:00,
2013-06-25 05:15:00,67.1,61.4,29.85,North,-999,0.0,0.0,82,0.00,,,-99.99,WeatherLink 5.5,2013-06-25 09:15:00,
2013-06-25 05:20:00,67.1,61.4,29.85,North,-999,0.0,0.0,82,0.00,,,-99.99,WeatherLink 5.5,2013-06-25 09:20:00,
2013-06-25 05:25:00,67.0,61.3,29.85,North,-999,0.0,0.0,82,0.00,,,-99.99,WeatherLink 5.5,2013-06-25 09:25:00,
2013-06-25 05:30:00,67.0,61.3,29.85,North,-999,0.0,0.0,82,0.00,,,-99.99,WeatherLink 5.5,2013-06-25 09:30:00,
2013-06-25 05:35:00,67.0,61.3,29.85,North,-999,0.0,0.0,82,0.00,,,-99.99,WeatherLink 5.5,2013-06-25 09:35:00,
2013-06-25 05:40:00,67.0,61.3,29.85,SE,135,0.0,2.0,82,0.00,,,-99.99,WeatherLink 5.5,2013-06-25 09:40:00,
2013-06-25 05:45:00,67.0,61.3,29.85,SE,135,0.0,2.0,82,0.00,,,-99.99,WeatherLink 5.5,2013-06-25 09:45:00,
2013-06-25 05:50:00,67.1,61.4,29.85,North,-999,0.0,0.0,82,0.00,,,-99.99,WeatherLink 5.5,2013-06-25 09:50:00,
2013-06-25 05:55:00,67.1,61.4,29.85,North,-999,0.0,0.0,82,0.00,,,-99.99,WeatherLink 5.5,2013-06-25 09:55:00,
2013-06-25 06:00:00,67.1,61.4,29.85,North,-999,0.0,0.0,82,0.00,,,-99.99,WeatherLink 5.5,2013-06-25 10:00:00,
2013-06-25 06:05:00,67.3,61.6,29.85,North,-999,0.0,0.0,82,0.00,,,-99.99,WeatherLink 5.5,2013-06-25 10:05:00,
2013-06-25 06:10:00,67.5,61.8,29.85,North,-999,0.0,0.0,82,0.00,,,-99.99,WeatherLink 5.5,2013-06-25 10:10:00,
2013-06-25 06:15:00,67.5,61.8,29.85,North,-999,0.0,0.0,82,0.00,,,-99.99,WeatherLink 5.5,2013-06-25 10:15:00,
2013-06-25 06:20:00,67.8,61.8,29.85,SSE,157,0.0,1.0,81,0.00,,,-99.99,WeatherLink 5.5,2013-06-25 10:20:00,
2013-06-25 06:25:00,68.0,61.9,29.85,SSE,157,0.0,1.0,81,0.00,,,-99.99,WeatherLink 5.5,2013-06-25 10:25:00,
2013-06-25 06:30:00,68.0,61.9,29.85,SSE,157,0.0,1.0,81,0.00,,,-99.99,WeatherLink 5.5,2013-06-25 10:30:00,
2013-06-25 06:35:00,68.3,61.5,29.85,SSE,157,0.0,1.0,79,0.00,,,-99.99,WeatherLink 5.5,2013-06-25 10:35:00,
2013-06-25 06:40:00,68.6,62.5,29.85,SSE,157,0.0,1.0,81,0.00,,,-99.99,WeatherLink 5.5,2013-06-25 10:40:00,
2013-06-25 06:45:00,68.6,62.5,29.85,SSE,157,0.0,1.0,81,0.00,,,-99.99,WeatherLink 5.5,2013-06-25 10:45:00,
2013-06-25 06:50:00,69.3,62.1,29.84,East,90,0.0,1.0,78,0.00,,,-99.99,WeatherLink 5.5,2013-06-25 10:50:00,
2013-06-25 06:55:00,69.8,62.3,29.84,East,90,1.0,6.0,77,0.00,,,-99.99,WeatherLink 5.5,2013-06-25 10:55:00,
2013-06-25 07:00:00,69.8,62.3,29.84,East,90,1.0,6.0,77,0.00,,,-99.99,WeatherLink 5.5,2013-06-25 11:00:00,
2013-06-25 07:05:00,70.5,61.8,29.84,SSE,157,0.0,1.0,74,0.00,,,-99.99,WeatherLink 5.5,2013-06-25 11:05:00,
2013-06-25 07:10:00,70.8,62.1,29.84,North,-999,0.0,0.0,74,0.00,,,-99.99,WeatherLink 5.5,2013-06-25 11:10:00,
2013-06-25 07:15:00,70.8,62.1,29.84,North,-999,0.0,0.0,74,0.00,,,-99.99,WeatherLink 5.5,2013-06-25 11:15:00,
2013-06-25 07:20:00,71.7,63.0,29.84,North,-999,0.0,0.0,74,0.00,,,-99.99,WeatherLink 5.5,2013-06-25 11:20:00,
2013-06-25 07:25:00,72.5,62.6,29.84,North,-999,0.0,0.0,71,0.00,,,-99.99,WeatherLink 5.5,2013-06-25 11:25:00,
2013-06-25 07:30:00,72.5,62.6,29.84,North,-999,0.0,0.0,71,0.00,,,-99.99,WeatherLink 5.5,2013-06-25 11:30:00,
2013-06-25 07:35:00,73.6,62.4,29.84,North,-999,0.0,0.0,68,0.00,,,-99.99,WeatherLink 5.5,2013-06-25 11:35:00,
2013-06-25 07:40:00,74.1,62.4,29.84,North,-999,0.0,0.0,67,0.00,,,-99.99,WeatherLink 5.5,2013-06-25 11:40:00,
2013-06-25 07:45:00,74.1,62.4,29.84,North,-999,0.0,0.0,67,0.00,,,-99.99,WeatherLink 5.5,2013-06-25 11:45:00,
2013-06-25 07:50:00,74.8,62.2,29.84,North,-999,0.0,0.0,65,0.00,,,-99.99,WeatherLink 5.5,2013-06-25 11:50:00,
2013-06-25 07:55:00,75.1,62.1,29.84,SSE,157,0.0,2.0,64,0.00,,,-99.99,WeatherLink 5.5,2013-06-25 11:55:00,
2013-06-25 08:00:00,75.1,62.1,29.84,SSE,157,0.0,2.0,64,0.00,,,-99.99,WeatherLink 5.5,2013-06-25 12:00:00,
2013-06-25 08:05:00,76.0,62.5,29.84,North,-999,0.0,0.0,63,0.00,,,-99.99,WeatherLink 5.5,2013-06-25 12:05:00,
2013-06-25 08:10:00,76.2,62.7,29.84,SSE,157,0.0,1.0,63,0.00,,,-99.99,WeatherLink 5.5,2013-06-25 12:10:00,
2013-06-25 08:15:00,76.2,62.7,29.84,SSE,157,0.0,1.0,63,0.00,,,-99.99,WeatherLink 5.5,2013-06-25 12:15:00,
2013-06-25 08:20:00,76.9,62.0,29.84,SSE,157,0.0,1.0,60,0.00,,,-99.99,WeatherLink 5.5,2013-06-25 12:20:00,
2013-06-25 08:25:00,77.3,62.8,29.84,North,-999,0.0,0.0,61,0.00,,,-99.99,WeatherLink 5.5,2013-06-25 12:25:00,
2013-06-25 08:30:00,77.3,62.8,29.84,North,-999,0.0,0.0,61,0.00,,,-99.99,WeatherLink 5.5,2013-06-25 12:30:00,
2013-06-25 08:35:00,77.6,62.1,29.84,SE,135,0.0,6.0,59,0.00,,,-99.99,WeatherLink 5.5,2013-06-25 12:35:00,
2013-06-25 08:40:00,78.0,62.5,29.84,North,-999,0.0,0.0,59,0.00,,,-99.99,WeatherLink 5.5,2013-06-25 12:40:00,
2013-06-25 08:45:00,78.0,62.5,29.84,North,-999,0.0,0.0,59,0.00,,,-99.99,WeatherLink 5.5,2013-06-25 12:45:00,
2013-06-25 08:50:00,78.5,62.0,29.84,SE,135,0.0,1.0,57,0.00,,,-99.99,WeatherLink 5.5,2013-06-25 12:50:00,
2013-06-25 08:55:00,78.7,61.7,29.84,SE,135,1.0,7.0,56,0.00,,,-99.99,WeatherLink 5.5,2013-06-25 12:55:00,
2013-06-25 09:00:00,78.7,61.7,29.84,SE,135,1.0,7.0,56,0.00,,,-99.99,WeatherLink 5.5,2013-06-25 13:00:00,
2013-06-25 09:05:00,79.3,61.7,29.83,WSW,247,1.0,8.0,55,0.00,,,-99.99,WeatherLink 5.5,2013-06-25 13:05:00,
2013-06-25 09:10:00,79.3,62.2,29.83,WSW,247,1.0,7.0,56,0.00,,,-99.99,WeatherLink 5.5,2013-06-25 13:10:00,
2013-06-25 09:15:00,79.3,62.2,29.83,WSW,247,1.0,7.0,56,0.00,,,-99.99,WeatherLink 5.5,2013-06-25 13:15:00,
2013-06-25 09:20:00,80.2,61.5,29.83,West,270,1.0,7.0,53,0.00,,,-99.99,WeatherLink 5.5,2013-06-25 13:20:00,
2013-06-25 09:25:00,80.6,61.3,29.83,West,270,0.0,1.0,52,0.00,,,-99.99,WeatherLink 5.5,2013-06-25 13:25:00,
2013-06-25 09:30:00,80.6,61.3,29.83,West,270,0.0,1.0,52,0.00,,,-99.99,WeatherLink 5.5,2013-06-25 13:30:00,
2013-06-25 09:35:00,81.3,62.0,29.82,SE,135,0.0,4.0,52,0.00,,,-99.99,WeatherLink 5.5,2013-06-25 13:35:00,
2013-06-25 09:40:00,81.9,61.4,29.82,ESE,112,0.0,6.0,50,0.00,,,-99.99,WeatherLink 5.5,2013-06-25 13:40:00,
2013-06-25 09:45:00,81.9,61.4,29.82,ESE,112,0.0,6.0,50,0.00,,,-99.99,WeatherLink 5.5,2013-06-25 13:45:00,
2013-06-25 09:50:00,81.9,61.4,29.82,SE,135,1.0,9.0,50,0.00,,,-99.99,WeatherLink 5.5,2013-06-25 13:50:00,
2013-06-25 09:55:00,82.1,62.2,29.82,SW,225,1.0,7.0,51,0.00,,,-99.99,WeatherLink 5.5,2013-06-25 13:55:00,
2013-06-25 10:00:00,82.1,62.2,29.82,SW,225,1.0,7.0,51,0.00,,,-99.99,WeatherLink 5.5,2013-06-25 14:00:00,
2013-06-25 10:05:00,82.5,62.0,29.82,SW,225,1.0,6.0,50,0.00,,,-99.99,WeatherLink 5.5,2013-06-25 14:05:00,
2013-06-25 10:10:00,82.5,62.0,29.82,WSW,247,1.0,9.0,50,0.00,,,-99.99,WeatherLink 5.5,2013-06-25 14:10:00,
2013-06-25 10:15:00,82.5,62.0,29.82,WSW,247,1.0,9.0,50,0.00,,,-99.99,WeatherLink 5.5,2013-06-25 14:15:00,
2013-06-25 10:20:00,82.7,62.2,29.82,SSE,157,2.0,8.0,50,0.00,,,-99.99,WeatherLink 5.5,2013-06-25 14:20:00,
2013-06-25 10:25:00,82.9,62.4,29.82,ESE,112,2.0,10.0,50,0.00,,,-99.99,WeatherLink 5.5,2013-06-25 14:25:00,
2013-06-25 10:30:00,82.9,62.4,29.82,ESE,112,2.0,10.0,50,0.00,,,-99.99,WeatherLink 5.5,2013-06-25 14:30:00,
2013-06-25 10:35:00,83.8,62.6,29.83,SSW,202,2.0,11.0,49,0.00,,,-99.99,WeatherLink 5.5,2013-06-25 14:35:00,
2013-06-25 10:40:00,83.8,62.6,29.83,SE,135,2.0,13.0,49,0.00,,,-99.99,WeatherLink 5.5,2013-06-25 14:40:00,
2013-06-25 10:45:00,83.8,62.6,29.83,SE,135,2.0,13.0,49,0.00,,,-99.99,WeatherLink 5.5,2013-06-25 14:45:00,
2013-06-25 10:50:00,83.7,62.5,29.84,SW,225,3.0,11.0,49,0.00,,,-99.99,WeatherLink 5.5,2013-06-25 14:50:00,
2013-06-25 10:55:00,83.7,62.5,29.84,West,270,3.0,9.0,49,0.00,,,-99.99,WeatherLink 5.5,2013-06-25 14:55:00,
2013-06-25 11:00:00,83.7,62.5,29.84,West,270,3.0,9.0,49,0.00,,,-99.99,WeatherLink 5.5,2013-06-25 15:00:00,
2013-06-25 11:05:00,84.0,62.8,29.83,WSW,247,2.0,9.0,49,0.00,,,-99.99,WeatherLink 5.5,2013-06-25 15:05:00,
2013-06-25 11:10:00,84.2,63.0,29.83,WSW,247,2.0,10.0,49,0.00,,,-99.99,WeatherLink 5.5,2013-06-25 15:10:00,
2013-06-25 11:15:00,84.2,63.0,29.83,WSW,247,2.0,10.0,49,0.00,,,-99.99,WeatherLink 5.5,2013-06-25 15:15:00,
2013-06-25 11:20:00,84.6,63.3,29.83,WSW,247,2.0,8.0,49,0.00,,,-99.99,WeatherLink 5.5,2013-06-25 15:20:00,
2013-06-25 11:25:00,84.6,63.3,29.83,SW,225,1.0,7.0,49,0.00,,,-99.99,WeatherLink 5.5,2013-06-25 15:25:00,
2013-06-25 11:30:00,84.6,63.3,29.83,SW,225,1.0,7.0,49,0.00,,,-99.99,WeatherLink 5.5,2013-06-25 15:30:00,
2013-06-25 11:35:00,85.4,64.6,29.83,West,270,0.0,4.0,50,0.00,,,-99.99,WeatherLink 5.5,2013-06-25 15:35:00,
2013-06-25 11:40:00,85.8,63.2,29.83,West,270,1.0,7.0,47,0.00,,,-99.99,WeatherLink 5.5,2013-06-25 15:40:00,
2013-06-25 11:45:00,85.8,63.2,29.83,West,270,1.0,7.0,47,0.00,,,-99.99,WeatherLink 5.5,2013-06-25 15:45:00,
2013-06-25 11:50:00,86.0,62.8,29.82,WSW,247,3.0,8.0,46,0.00,,,-99.99,WeatherLink 5.5,2013-06-25 15:50:00,
2013-06-25 11:55:00,85.8,63.8,29.82,WSW,247,3.0,13.0,48,0.00,,,-99.99,WeatherLink 5.5,2013-06-25 15:55:00,
2013-06-25 12:00:00,85.8,63.8,29.82,WSW,247,3.0,13.0,48,0.00,,,-99.99,WeatherLink 5.5,2013-06-25 16:00:00,
2013-06-25 12:05:00,85.8,63.2,29.82,SW,225,1.0,7.0,47,0.00,,,-99.99,WeatherLink 5.5,2013-06-25 16:05:00,
2013-06-25 12:10:00,86.2,63.0,29.82,SW,225,0.0,4.0,46,0.00,,,-99.99,WeatherLink 5.5,2013-06-25 16:10:00,
2013-06-25 12:15:00,86.2,63.0,29.82,SW,225,0.0,4.0,46,0.00,,,-99.99,WeatherLink 5.5,2013-06-25 16:15:00,
2013-06-25 12:20:00,87.1,63.2,29.82,NNW,337,1.0,7.0,45,0.00,,,-99.99,WeatherLink 5.5,2013-06-25 16:20:00,
2013-06-25 12:25:00,87.3,62.7,29.82,WSW,247,1.0,6.0,44,0.00,,,-99.99,WeatherLink 5.5,2013-06-25 16:25:00,
2013-06-25 12:30:00,87.3,62.7,29.82,WSW,247,1.0,6.0,44,0.00,,,-99.99,WeatherLink 5.5,2013-06-25 16:30:00,
2013-06-25 12:35:00,87.3,62.7,29.81,SW,225,0.0,1.0,44,0.00,,,-99.99,WeatherLink 5.5,2013-06-25 16:35:00,
2013-06-25 12:40:00,87.9,64.5,29.81,SW,225,0.0,4.0,46,0.00,,,-99.99,WeatherLink 5.5,2013-06-25 16:40:00,
2013-06-25 12:45:00,87.9,64.5,29.81,SW,225,0.0,4.0,46,0.00,,,-99.99,WeatherLink 5.5,2013-06-25 16:45:00,
2013-06-25 12:50:00,88.5,63.1,29.81,ESE,112,0.0,1.0,43,0.00,,,-99.99,WeatherLink 5.5,2013-06-25 16:50:00,
2013-06-25 12:55:00,88.5,63.8,29.81,WSW,247,1.0,4.0,44,0.00,,,-99.99,WeatherLink 5.5,2013-06-25 16:55:00,
2013-06-25 13:00:00,88.5,63.8,29.81,WSW,247,1.0,4.0,44,0.00,,,-99.99,WeatherLink 5.5,2013-06-25 17:00:00,
2013-06-25 13:05:00,89.0,65.5,29.80,WSW,247,0.0,4.0,46,0.00,,,-99.99,WeatherLink 5.5,2013-06-25 17:05:00,
2013-06-25 13:10:00,89.2,64.4,29.80,WSW,247,1.0,9.0,44,0.00,,,-99.99,WeatherLink 5.5,2013-06-25 17:10:00,
2013-06-25 13:15:00,89.2,64.4,29.80,WSW,247,1.0,9.0,44,0.00,,,-99.99,WeatherLink 5.5,2013-06-25 17:15:00,
2013-06-25 13:20:00,88.7,63.3,29.79,WSW,247,2.0,9.0,43,0.00,,,-99.99,WeatherLink 5.5,2013-06-25 17:20:00,
2013-06-25 13:25:00,89.2,62.4,29.79,ESE,112,1.0,8.0,41,0.00,,,-99.99,WeatherLink 5.5,2013-06-25 17:25:00,
2013-06-25 13:30:00,89.2,62.4,29.79,ESE,112,1.0,8.0,41,0.00,,,-99.99,WeatherLink 5.5,2013-06-25 17:30:00,
2013-06-25 13:35:00,89.2,62.4,29.78,ESE,112,2.0,10.0,41,0.00,,,-99.99,WeatherLink 5.5,2013-06-25 17:35:00,
2013-06-25 13:40:00,89.8,62.3,29.78,SW,225,2.0,13.0,40,0.00,,,-99.99,WeatherLink 5.5,2013-06-25 17:40:00,
2013-06-25 13:45:00,89.8,62.3,29.78,SW,225,2.0,13.0,40,0.00,,,-99.99,WeatherLink 5.5,2013-06-25 17:45:00,
2013-06-25 13:50:00,90.0,62.4,29.78,SW,225,1.0,6.0,40,0.00,,,-99.99,WeatherLink 5.5,2013-06-25 17:50:00,
2013-06-25 13:55:00,90.2,66.0,29.78,SSE,157,1.0,7.0,45,0.00,,,-99.99,WeatherLink 5.5,2013-06-25 17:55:00,
2013-06-25 14:00:00,90.2,66.0,29.78,SSE,157,1.0,7.0,45,0.00,,,-99.99,WeatherLink 5.5,2013-06-25 18:00:00,
2013-06-25 14:05:00,90.2,61.2,29.77,SW,225,2.0,10.0,38,0.00,,,-99.99,WeatherLink 5.5,2013-06-25 18:05:00,
2013-06-25 14:10:00,89.8,61.5,29.77,SSW,202,3.0,15.0,39,0.00,,,-99.99,WeatherLink 5.5,2013-06-25 18:10:00,
2013-06-25 14:15:00,89.8,61.5,29.77,SSW,202,3.0,15.0,39,0.00,,,-99.99,WeatherLink 5.5,2013-06-25 18:15:00,
2013-06-25 14:20:00,89.6,61.4,29.76,WSW,247,2.0,8.0,39,0.00,,,-99.99,WeatherLink 5.5,2013-06-25 18:20:00,
2013-06-25 14:25:00,89.6,60.6,29.76,WSW,247,1.0,8.0,38,0.00,,,-99.99,WeatherLink 5.5,2013-06-25 18:25:00,
2013-06-25 14:30:00,89.6,60.6,29.76,WSW,247,1.0,8.0,38,0.00,,,-99.99,WeatherLink 5.5,2013-06-25 18:30:00,
2013-06-25 14:35:00,89.6,60.6,29.76,SSE,157,3.0,8.0,38,0.00,,,-99.99,WeatherLink 5.5,2013-06-25 18:35:00,
2013-06-25 14:40:00,89.2,61.0,29.76,South,180,4.0,13.0,39,0.00,,,-99.99,WeatherLink 5.5,2013-06-25 18:40:00,
2013-06-25 14:45:00,89.2,61.0,29.76,South,180,4.0,13.0,39,0.00,,,-99.99,WeatherLink 5.5,2013-06-25 18:45:00,
2013-06-25 14:50:00,89.0,60.8,29.75,SE,135,2.0,8.0,39,0.00,,,-99.99,WeatherLink 5.5,2013-06-25 18:50:00,
2013-06-25 14:55:00,88.7,60.6,29.75,SE,135,3.0,10.0,39,0.00,,,-99.99,WeatherLink 5.5,2013-06-25 18:55:00,
2013-06-25 15:00:00,88.7,60.6,29.75,SE,135,3.0,10.0,39,0.00,,,-99.99,WeatherLink 5.5,2013-06-25 19:00:00,
2013-06-25 15:05:00,89.4,61.2,29.74,WSW,247,1.0,8.0,39,0.00,,,-99.99,WeatherLink 5.5,2013-06-25 19:05:00,
2013-06-25 15:10:00,89.6,61.4,29.74,South,180,0.0,4.0,39,0.00,,,-99.99,WeatherLink 5.5,2013-06-25 19:10:00,
2013-06-25 15:15:00,89.6,61.4,29.74,South,180,0.0,4.0,39,0.00,,,-99.99,WeatherLink 5.5,2013-06-25 19:15:00,
2013-06-25 15:20:00,89.2,61.0,29.73,WNW,292,1.0,10.0,39,0.00,,,-99.99,WeatherLink 5.5,2013-06-25 19:20:00,
2013-06-25 15:25:00,89.0,60.8,29.73,SE,135,4.0,10.0,39,0.00,,,-99.99,WeatherLink 5.5,2013-06-25 19:25:00,
2013-06-25 15:30:00,89.0,60.8,29.73,SE,135,4.0,10.0,39,0.00,,,-99.99,WeatherLink 5.5,2013-06-25 19:30:00,
2013-06-25 15:35:00,89.0,60.8,29.73,SSE,157,1.0,6.0,39,0.00,,,-99.99,WeatherLink 5.5,2013-06-25 19:35:00,
2013-06-25 15:40:00,89.4,61.9,29.73,South,180,0.0,6.0,40,0.00,,,-99.99,WeatherLink 5.5,2013-06-25 19:40:00,
2013-06-25 15:45:00,89.4,61.9,29.73,South,180,0.0,6.0,40,0.00,,,-99.99,WeatherLink 5.5,2013-06-25 19:45:00,
2013-06-25 15:50:00,89.4,61.2,29.72,WSW,247,3.0,10.0,39,0.00,,,-99.99,WeatherLink 5.5,2013-06-25 19:50:00,
2013-06-25 15:55:00,89.6,62.1,29.72,ESE,112,1.0,6.0,40,0.00,,,-99.99,WeatherLink 5.5,2013-06-25 19:55:00,
2013-06-25 16:00:00,89.6,62.1,29.72,ESE,112,1.0,6.0,40,0.00,,,-99.99,WeatherLink 5.5,2013-06-25 20:00:00,
2013-06-25 16:05:00,89.4,61.2,29.71,South,180,4.0,10.0,39,0.00,,,-99.99,WeatherLink 5.5,2013-06-25 20:05:00,
2013-06-25 16:10:00,89.2,61.0,29.71,SE,135,4.0,10.0,39,0.00,,,-99.99,WeatherLink 5.5,2013-06-25 20:10:00,
2013-06-25 16:15:00,89.2,61.0,29.71,SE,135,4.0,10.0,39,0.00,,,-99.99,WeatherLink 5.5,2013-06-25 20:15:00,
2013-06-25 16:20:00,89.0,60.8,29.70,SSE,157,2.0,8.0,39,0.00,,,-99.99,WeatherLink 5.5,2013-06-25 20:20:00,
2013-06-25 16:25:00,89.4,61.9,29.70,West,270,0.0,4.0,40,0.00,,,-99.99,WeatherLink 5.5,2013-06-25 20:25:00,
2013-06-25 16:30:00,89.4,61.9,29.70,West,270,0.0,4.0,40,0.00,,,-99.99,WeatherLink 5.5,2013-06-25 20:30:00,
2013-06-25 16:35:00,89.2,60.3,29.70,SE,135,3.0,11.0,38,0.00,,,-99.99,WeatherLink 5.5,2013-06-25 20:35:00,
2013-06-25 16:40:00,89.4,59.7,29.70,SE,135,2.0,11.0,37,0.00,,,-99.99,WeatherLink 5.5,2013-06-25 20:40:00,
2013-06-25 16:45:00,89.4,59.7,29.70,SE,135,2.0,11.0,37,0.00,,,-99.99,WeatherLink 5.5,2013-06-25 20:45:00,
2013-06-25 16:50:00,89.2,61.0,29.70,SSE,157,5.0,18.0,39,0.00,,,-99.99,WeatherLink 5.5,2013-06-25 20:50:00,
2013-06-25 16:55:00,89.0,61.5,29.70,SE,135,4.0,11.0,40,0.00,,,-99.99,WeatherLink 5.5,2013-06-25 20:55:00,
2013-06-25 17:00:00,89.0,61.5,29.70,SE,135,4.0,11.0,40,0.00,,,-99.99,WeatherLink 5.5,2013-06-25 21:00:00,
2013-06-25 17:05:00,89.0,60.8,29.70,SW,225,1.0,7.0,39,0.00,,,-99.99,WeatherLink 5.5,2013-06-25 21:05:00,
2013-06-25 17:10:00,88.7,61.3,29.70,SSE,157,2.0,10.0,40,0.00,,,-99.99,WeatherLink 5.5,2013-06-25 21:10:00,
2013-06-25 17:15:00,88.7,61.3,29.70,SSE,157,2.0,10.0,40,0.00,,,-99.99,WeatherLink 5.5,2013-06-25 21:15:00,
2013-06-25 17:20:00,87.7,61.1,29.71,SE,135,2.0,11.0,41,0.00,,,-99.99,WeatherLink 5.5,2013-06-25 21:20:00,
2013-06-25 17:25:00,87.5,61.6,29.71,SE,135,1.0,6.0,42,0.00,,,-99.99,WeatherLink 5.5,2013-06-25 21:25:00,
2013-06-25 17:30:00,87.5,61.6,29.71,SE,135,1.0,6.0,42,0.00,,,-99.99,WeatherLink 5.5,2013-06-25 21:30:00,
2013-06-25 17:35:00,87.1,61.2,29.70,SE,135,1.0,8.0,42,0.00,,,-99.99,WeatherLink 5.5,2013-06-25 21:35:00,
2013-06-25 17:40:00,86.9,61.7,29.70,SE,135,1.0,8.0,43,0.00,,,-99.99,WeatherLink 5.5,2013-06-25 21:40:00,
2013-06-25 17:45:00,86.9,61.7,29.70,SE,135,1.0,8.0,43,0.00,,,-99.99,WeatherLink 5.5,2013-06-25 21:45:00,
2013-06-25 17:50:00,86.4,61.9,29.69,SSE,157,0.0,1.0,44,0.00,,,-99.99,WeatherLink 5.5,2013-06-25 21:50:00,
2013-06-25 17:55:00,86.2,61.7,29.69,SSE,157,2.0,7.0,44,0.00,,,-99.99,WeatherLink 5.5,2013-06-25 21:55:00,
2013-06-25 18:00:00,86.2,61.7,29.69,SSE,157,2.0,7.0,44,0.00,,,-99.99,WeatherLink 5.5,2013-06-25 22:00:00,
2013-06-25 18:05:00,85.6,62.4,29.68,SSE,157,0.0,2.0,46,0.00,,,-99.99,WeatherLink 5.5,2013-06-25 22:05:00,
2013-06-25 18:10:00,85.6,62.4,29.68,SSE,157,0.0,1.0,46,0.00,,,-99.99,WeatherLink 5.5,2013-06-25 22:10:00,
2013-06-25 18:15:00,85.6,62.4,29.68,SSE,157,0.0,1.0,46,0.00,,,-99.99,WeatherLink 5.5,2013-06-25 22:15:00,
2013-06-25 18:20:00,85.4,63.5,29.67,North,-999,0.0,0.0,48,0.00,,,-99.99,WeatherLink 5.5,2013-06-25 22:20:00,
2013-06-25 18:25:00,85.2,63.3,29.67,North,-999,0.0,0.0,48,0.00,,,-99.99,WeatherLink 5.5,2013-06-25 22:25:00,
2013-06-25 18:30:00,85.2,63.3,29.67,North,-999,0.0,0.0,48,0.00,,,-99.99,WeatherLink 5.5,2013-06-25 22:30:00,
2013-06-25 18:35:00,85.0,63.1,29.68,SSE,157,0.0,1.0,48,0.00,,,-99.99,WeatherLink 5.5,2013-06-25 22:35:00,
2013-06-25 18:40:00,84.8,63.5,29.68,SSE,157,0.0,4.0,49,0.00,,,-99.99,WeatherLink 5.5,2013-06-25 22:40:00,
2013-06-25 18:45:00,84.8,63.5,29.68,SSE,157,0.0,4.0,49,0.00,,,-99.99,WeatherLink 5.5,2013-06-25 22:45:00,
2013-06-25 18:50:00,84.4,63.2,29.68,SSE,157,0.0,1.0,49,0.00,,,-99.99,WeatherLink 5.5,2013-06-25 22:50:00,
2013-06-25 18:55:00,84.2,63.5,29.68,ESE,112,1.0,6.0,50,0.00,,,-99.99,WeatherLink 5.5,2013-06-25 22:55:00,
2013-06-25 19:00:00,84.2,63.5,29.68,ESE,112,1.0,6.0,50,0.00,,,-99.99,WeatherLink 5.5,2013-06-25 23:00:00,
2013-06-25 19:05:00,83.8,63.2,29.68,SSE,157,0.0,4.0,50,0.00,,,-99.99,WeatherLink 5.5,2013-06-25 23:05:00,
2013-06-25 19:10:00,83.8,63.2,29.68,SSE,157,0.0,1.0,50,0.00,,,-99.99,WeatherLink 5.5,2013-06-25 23:10:00,
2013-06-25 19:15:00,83.8,63.2,29.68,SSE,157,0.0,1.0,50,0.00,,,-99.99,WeatherLink 5.5,2013-06-25 23:15:00,
2013-06-25 19:20:00,83.8,63.2,29.67,SSE,157,1.0,6.0,50,0.00,,,-99.99,WeatherLink 5.5,2013-06-25 23:20:00,
2013-06-25 19:25:00,83.8,64.3,29.67,SSE,157,0.0,1.0,52,0.00,,,-99.99,WeatherLink 5.5,2013-06-25 23:25:00,
2013-06-25 19:30:00,83.8,64.3,29.67,SSE,157,0.0,1.0,52,0.00,,,-99.99,WeatherLink 5.5,2013-06-25 23:30:00,
2013-06-25 19:35:00,83.1,66.3,29.68,North,-999,0.0,0.0,57,0.00,,,-99.99,WeatherLink 5.5,2013-06-25 23:35:00,
2013-06-25 19:40:00,82.3,67.0,29.68,WSW,247,2.0,7.0,60,0.01,,,-99.99,WeatherLink 5.5,2013-06-25 23:40:00,
2013-06-25 19:45:00,82.3,67.0,29.68,WSW,247,2.0,7.0,60,0.01,,,-99.99,WeatherLink 5.5,2013-06-25 23:45:00,
2013-06-25 19:50:00,80.2,66.5,29.68,North,-999,0.0,0.0,63,0.01,,,-99.99,WeatherLink 5.5,2013-06-25 23:50:00,
2013-06-25 19:55:00,79.8,66.1,29.68,North,-999,0.0,0.0,63,0.01,,,-99.99,WeatherLink 5.5,2013-06-25 23:55:00,
2013-06-25 20:00:00,79.8,66.1,29.68,North,-999,0.0,0.0,63,0.01,,,-99.99,WeatherLink 5.5,2013-06-26 00:00:00,
2013-06-25 20:05:00,79.3,67.0,29.67,North,-999,0.0,0.0,66,0.01,,,-99.99,WeatherLink 5.5,2013-06-26 00:05:00,
2013-06-25 20:10:00,79.3,67.4,29.67,North,-999,0.0,0.0,67,0.01,,,-99.99,WeatherLink 5.5,2013-06-26 00:10:00,
2013-06-25 20:15:00,79.3,67.4,29.67,North,-999,0.0,0.0,67,0.01,,,-99.99,WeatherLink 5.5,2013-06-26 00:15:00,
2013-06-25 20:20:00,78.7,66.8,29.67,North,-999,0.0,0.0,67,0.01,,,-99.99,WeatherLink 5.5,2013-06-26 00:20:00,
2013-06-25 20:25:00,78.5,67.5,29.67,SE,135,0.0,1.0,69,0.01,,,-99.99,WeatherLink 5.5,2013-06-26 00:25:00,
2013-06-25 20:30:00,78.5,67.5,29.67,SE,135,0.0,1.0,69,0.01,,,-99.99,WeatherLink 5.5,2013-06-26 00:30:00,
2013-06-25 20:35:00,77.8,66.4,29.66,SW,225,3.0,8.0,68,0.01,,,-99.99,WeatherLink 5.5,2013-06-26 00:35:00,
2013-06-25 20:40:00,76.9,67.2,29.66,WSW,247,4.0,11.0,72,0.25,,,-99.99,WeatherLink 5.5,2013-06-26 00:40:00,
2013-06-25 20:45:00,76.9,67.2,29.66,WSW,247,4.0,11.0,72,0.25,,,-99.99,WeatherLink 5.5,2013-06-26 00:45:00,
2013-06-25 20:50:00,74.8,67.5,29.71,WSW,247,1.0,4.0,78,0.46,,,-99.99,WeatherLink 5.5,2013-06-26 00:50:00,
2013-06-25 20:55:00,74.1,67.2,29.71,North,-999,0.0,0.0,79,0.46,,,-99.99,WeatherLink 5.5,2013-06-26 00:55:00,
2013-06-25 21:00:00,74.1,67.2,29.71,North,-999,0.0,0.0,79,0.46,,,-99.99,WeatherLink 5.5,2013-06-26 01:00:00,
2013-06-25 21:05:00,73.6,67.0,29.70,WSW,247,0.0,1.0,80,0.47,,,-99.99,WeatherLink 5.5,2013-06-26 01:05:00,
2013-06-25 21:10:00,73.4,67.2,29.70,North,-999,0.0,0.0,81,0.47,,,-99.99,WeatherLink 5.5,2013-06-26 01:10:00,
2013-06-25 21:15:00,73.4,67.2,29.70,North,-999,0.0,0.0,81,0.47,,,-99.99,WeatherLink 5.5,2013-06-26 01:15:00,
2013-06-25 21:20:00,73.2,67.0,29.70,North,-999,0.0,0.0,81,0.47,,,-99.99,WeatherLink 5.5,2013-06-26 01:20:00,
2013-06-25 21:25:00,73.0,67.2,29.70,North,-999,0.0,0.0,82,0.47,,,-99.99,WeatherLink 5.5,2013-06-26 01:25:00,
2013-06-25 21:30:00,73.0,67.2,29.70,North,-999,0.0,0.0,82,0.47,,,-99.99,WeatherLink 5.5,2013-06-26 01:30:00,
2013-06-25 21:35:00,72.9,67.1,29.70,North,-999,0.0,0.0,82,0.47,,,-99.99,WeatherLink 5.5,2013-06-26 01:35:00,
2013-06-25 21:40:00,72.9,67.1,29.70,North,-999,0.0,0.0,82,0.22,,,-99.99,WeatherLink 5.5,2013-06-26 01:40:00,
2013-06-25 21:45:00,72.9,67.1,29.70,North,-999,0.0,0.0,82,0.22,,,-99.99,WeatherLink 5.5,2013-06-26 01:45:00,
2013-06-25 21:50:00,72.7,66.9,29.70,North,-999,0.0,0.0,82,0.01,,,-99.99,WeatherLink 5.5,2013-06-26 01:50:00,
2013-06-25 21:55:00,72.5,67.0,29.70,North,-999,0.0,0.0,83,0.01,,,-99.99,WeatherLink 5.5,2013-06-26 01:55:00,
2013-06-25 22:00:00,72.5,67.0,29.70,North,-999,0.0,0.0,83,0.01,,,-99.99,WeatherLink 5.5,2013-06-26 02:00:00,
2013-06-25 22:05:00,72.5,67.0,29.71,North,-999,0.0,0.0,83,0.00,,,-99.99,WeatherLink 5.5,2013-06-26 02:05:00,
2013-06-25 22:10:00,72.4,66.9,29.71,North,-999,0.0,0.0,83,0.00,,,-99.99,WeatherLink 5.5,2013-06-26 02:10:00,
2013-06-25 22:15:00,72.4,66.9,29.71,North,-999,0.0,0.0,83,0.00,,,-99.99,WeatherLink 5.5,2013-06-26 02:15:00,
2013-06-25 22:20:00,72.4,66.9,29.71,North,-999,0.0,0.0,83,0.00,,,-99.99,WeatherLink 5.5,2013-06-26 02:20:00,
2013-06-25 22:25:00,72.4,66.9,29.71,North,-999,0.0,0.0,83,0.00,,,-99.99,WeatherLink 5.5,2013-06-26 02:25:00,
2013-06-25 22:30:00,72.4,66.9,29.71,North,-999,0.0,0.0,83,0.00,,,-99.99,WeatherLink 5.5,2013-06-26 02:30:00,
2013-06-25 22:35:00,72.2,66.7,29.71,North,-999,0.0,0.0,83,0.00,,,-99.99,WeatherLink 5.5,2013-06-26 02:35:00,
2013-06-25 22:40:00,72.0,66.6,29.71,North,-999,0.0,0.0,83,0.00,,,-99.99,WeatherLink 5.5,2013-06-26 02:40:00,
2013-06-25 22:45:00,72.0,66.6,29.71,North,-999,0.0,0.0,83,0.00,,,-99.99,WeatherLink 5.5,2013-06-26 02:45:00,
2013-06-25 22:50:00,72.0,66.6,29.71,North,-999,0.0,0.0,83,0.00,,,-99.99,WeatherLink 5.5,2013-06-26 02:50:00,
2013-06-25 22:55:00,71.8,66.7,29.71,North,-999,0.0,0.0,84,0.00,,,-99.99,WeatherLink 5.5,2013-06-26 02:55:00,
2013-06-25 23:00:00,71.8,66.7,29.71,North,-999,0.0,0.0,84,0.00,,,-99.99,WeatherLink 5.5,2013-06-26 03:00:00,
2013-06-25 23:05:00,71.8,66.7,29.71,North,-999,0.0,0.0,84,0.00,,,-99.99,WeatherLink 5.5,2013-06-26 03:05:00,
2013-06-25 23:10:00,71.7,66.6,29.71,North,-999,0.0,0.0,84,0.00,,,-99.99,WeatherLink 5.5,2013-06-26 03:10:00,
2013-06-25 23:15:00,71.7,66.6,29.71,North,-999,0.0,0.0,84,0.00,,,-99.99,WeatherLink 5.5,2013-06-26 03:15:00,
2013-06-25 23:20:00,71.5,66.4,29.71,North,-999,0.0,0.0,84,0.00,,,-99.99,WeatherLink 5.5,2013-06-26 03:20:00,
2013-06-25 23:25:00,71.3,66.2,29.71,North,-999,0.0,0.0,84,0.00,,,-99.99,WeatherLink 5.5,2013-06-26 03:25:00,
2013-06-25 23:30:00,71.3,66.2,29.71,North,-999,0.0,0.0,84,0.00,,,-99.99,WeatherLink 5.5,2013-06-26 03:30:00,
2013-06-25 23:35:00,71.3,66.2,29.70,North,-999,0.0,0.0,84,0.00,,,-99.99,WeatherLink 5.5,2013-06-26 03:35:00,
2013-06-25 23:40:00,71.2,66.1,29.70,North,-999,0.0,0.0,84,0.00,,,-99.99,WeatherLink 5.5,2013-06-26 03:40:00,
2013-06-25 23:45:00,71.2,66.1,29.70,North,-999,0.0,0.0,84,0.00,,,-99.99,WeatherLink 5.5,2013-06-26 03:45:00,
2013-06-25 23:50:00,71.0,65.9,29.70,North,-999,0.0,0.0,84,0.00,,,-99.99,WeatherLink 5.5,2013-06-26 03:50:00,
2013-06-25 23:55:00,71.0,65.9,29.70,North,-999,0.0,0.0,84,0.00,,,-99.99,WeatherLink 5.5,2013-06-26 03:55:00,